owner,sensor,date,latitude,longitude,vertical_datum,mass_concentration_of_oxygen_in_sea_water,qcFlag 
SCCF RECON,ioos:station:SCCF:13:1,2012-10-01T00:00:00Z,26.5255,-82.0032,2.26,5.09,1111122 
SCCF RECON,ioos:station:SCCF:13:1,2012-10-01T01:00:00Z,26.5255,-82.0032,2.25,4.73,1111122 
SCCF RECON,ioos:station:SCCF:13:1,2012-10-01T02:00:00Z,26.5255,-82.0032,2.356,4.44,1111122 
SCCF RECON,ioos:station:SCCF:13:1,2012-10-01T03:00:00Z,26.5255,-82.0032,2.5,4.28,1111122 
SCCF RECON,ioos:station:SCCF:13:1,2012-10-01T04:00:00Z,26.5255,-82.0032,2.59,5.08,1111122 
SCCF RECON,ioos:station:SCCF:13:1,2012-10-01T05:00:00Z,26.5255,-82.0032,2.66,5.8,1111122 
SCCF RECON,ioos:station:SCCF:13:1,2012-10-01T06:00:00Z,26.5255,-82.0032,2.68,5.74,1111122 
SCCF RECON,ioos:station:SCCF:13:1,2012-10-01T07:00:00Z,26.5255,-82.0032,2.66,5.76,1111122 
SCCF RECON,ioos:station:SCCF:13:1,2012-10-01T08:00:00Z,26.5255,-82.0032,2.6,5.61,1111122 
SCCF RECON,ioos:station:SCCF:13:1,2012-10-01T09:00:00Z,26.5255,-82.0032,2.51,5.33,1111122 
SCCF RECON,ioos:station:SCCF:13:1,2012-10-01T10:00:00Z,26.5255,-82.0032,2.398,4.81,1111122 
SCCF RECON,ioos:station:SCCF:13:1,2012-10-01T11:00:00Z,26.5255,-82.0032,2.29,4.67,1111122 
SCCF RECON,ioos:station:SCCF:13:1,2012-10-01T12:00:00Z,26.5255,-82.0032,2.2,4.67,1111122 
SCCF RECON,ioos:station:SCCF:13:1,2012-10-01T13:00:00Z,26.5255,-82.0032,2.15,4.58,1111122 
SCCF RECON,ioos:station:SCCF:13:1,2012-10-01T14:00:00Z,26.5255,-82.0032,2.21,4.47,1111122 
SCCF RECON,ioos:station:SCCF:13:1,2012-10-01T15:00:00Z,26.5255,-82.0032,2.381,4.26,1111122 
SCCF RECON,ioos:station:SCCF:13:1,2012-10-01T16:00:00Z,26.5255,-82.0032,2.5,4.37,1111122 
SCCF RECON,ioos:station:SCCF:13:1,2012-10-01T17:00:00Z,26.5255,-82.0032,2.562,4.42,1111122 
SCCF RECON,ioos:station:SCCF:13:1,2012-10-01T18:00:00Z,26.5255,-82.0032,2.622,5.84,1111122 
SCCF RECON,ioos:station:SCCF:13:1,2012-10-01T19:00:00Z,26.5255,-82.0032,2.657,5.74,1111122 
SCCF RECON,ioos:station:SCCF:13:1,2012-10-01T20:00:00Z,26.5255,-82.0032,2.641,6.22,1111122 
SCCF RECON,ioos:station:SCCF:13:1,2012-10-01T21:00:00Z,26.5255,-82.0032,2.57,5.46,1111122 
SCCF RECON,ioos:station:SCCF:13:1,2012-10-01T22:00:00Z,26.5255,-82.0032,2.53,5.76,1111122 
SCCF RECON,ioos:station:SCCF:13:1,2012-10-01T23:00:00Z,26.5255,-82.0032,2.469,5.38,1111122 
SCCF RECON,ioos:station:SCCF:13:1,2012-10-02T00:00:00Z,26.5255,-82.0032,2.39,5.06,1111122 
SCCF RECON,ioos:station:SCCF:13:1,2012-10-02T01:00:00Z,26.5255,-82.0032,2.37,5.08,1111122 
SCCF RECON,ioos:station:SCCF:13:1,2012-10-02T02:00:00Z,26.5255,-82.0032,2.41,4.95,1111122 
SCCF RECON,ioos:station:SCCF:13:1,2012-10-02T03:00:00Z,26.5255,-82.0032,2.51,4.58,1111122 
SCCF RECON,ioos:station:SCCF:13:1,2012-10-02T04:00:00Z,26.5255,-82.0032,2.63,4.51,1111122 
SCCF RECON,ioos:station:SCCF:13:1,2012-10-02T05:00:00Z,26.5255,-82.0032,2.708,5.15,1111122 
SCCF RECON,ioos:station:SCCF:13:1,2012-10-02T06:00:00Z,26.5255,-82.0032,2.75,5.48,1111122 
SCCF RECON,ioos:station:SCCF:13:1,2012-10-02T07:00:00Z,26.5255,-82.0032,2.774,5.28,1111122 
SCCF RECON,ioos:station:SCCF:13:1,2012-10-02T08:00:00Z,26.5255,-82.0032,2.763,5.14,1111122 
SCCF RECON,ioos:station:SCCF:13:1,2012-10-02T09:00:00Z,26.5255,-82.0032,2.699,4.88,1111122 
SCCF RECON,ioos:station:SCCF:13:1,2012-10-02T10:00:00Z,26.5255,-82.0032,2.56,4.81,1111122 
SCCF RECON,ioos:station:SCCF:13:1,2012-10-02T11:00:00Z,26.5255,-82.0032,2.42,4.52,1111122 
SCCF RECON,ioos:station:SCCF:13:1,2012-10-02T12:00:00Z,26.5255,-82.0032,2.37,4.82,1111122 
SCCF RECON,ioos:station:SCCF:13:1,2012-10-02T13:00:00Z,26.5255,-82.0032,2.3,4.73,1111122 
SCCF RECON,ioos:station:SCCF:13:1,2012-10-02T14:00:00Z,26.5255,-82.0032,2.292,4.7,1111122 
SCCF RECON,ioos:station:SCCF:13:1,2012-10-02T15:00:00Z,26.5255,-82.0032,2.33,4.63,1111122 
SCCF RECON,ioos:station:SCCF:13:1,2012-10-02T16:00:00Z,26.5255,-82.0032,2.48,4.65,1111122 
SCCF RECON,ioos:station:SCCF:13:1,2012-10-02T17:00:00Z,26.5255,-82.0032,2.547,4.37,1111122 
SCCF RECON,ioos:station:SCCF:13:1,2012-10-02T18:00:00Z,26.5255,-82.0032,2.585,4.86,1111122 
SCCF RECON,ioos:station:SCCF:13:1,2012-10-02T19:00:00Z,26.5255,-82.0032,2.631,4.91,1111122 
SCCF RECON,ioos:station:SCCF:13:1,2012-10-02T20:00:00Z,26.5255,-82.0032,2.675,5.55,1111122 
SCCF RECON,ioos:station:SCCF:13:1,2012-10-02T21:00:00Z,26.5255,-82.0032,2.683,5.89,1111122 
SCCF RECON,ioos:station:SCCF:13:1,2012-10-02T22:00:00Z,26.5255,-82.0032,2.66,4.96,1111122 
SCCF RECON,ioos:station:SCCF:13:1,2012-10-02T23:00:00Z,26.5255,-82.0032,2.51,5.16,1111122 
SCCF RECON,ioos:station:SCCF:13:1,2012-10-03T00:00:00Z,26.5255,-82.0032,2.47,4.73,1111122 
SCCF RECON,ioos:station:SCCF:13:1,2012-10-03T01:00:00Z,26.5255,-82.0032,2.41,4.8,1111122 
SCCF RECON,ioos:station:SCCF:13:1,2012-10-03T02:00:00Z,26.5255,-82.0032,2.42,4.76,1111122 
SCCF RECON,ioos:station:SCCF:13:1,2012-10-03T03:00:00Z,26.5255,-82.0032,2.51,4.86,1111122 
SCCF RECON,ioos:station:SCCF:13:1,2012-10-03T04:00:00Z,26.5255,-82.0032,2.628,4.24,1111122 
SCCF RECON,ioos:station:SCCF:13:1,2012-10-03T05:00:00Z,26.5255,-82.0032,2.769,4.52,1111122 
SCCF RECON,ioos:station:SCCF:13:1,2012-10-03T06:00:00Z,26.5255,-82.0032,2.71,4.72,1111122 
SCCF RECON,ioos:station:SCCF:13:1,2012-10-03T07:00:00Z,26.5255,-82.0032,2.745,4.82,1111122 
SCCF RECON,ioos:station:SCCF:13:1,2012-10-03T08:00:00Z,26.5255,-82.0032,2.748,4.81,1111122 
SCCF RECON,ioos:station:SCCF:13:1,2012-10-03T09:00:00Z,26.5255,-82.0032,2.671,4.48,1111122 
SCCF RECON,ioos:station:SCCF:13:1,2012-10-03T10:00:00Z,26.5255,-82.0032,2.54,4.37,1111122 
SCCF RECON,ioos:station:SCCF:13:1,2012-10-03T11:00:00Z,26.5255,-82.0032,2.45,4.6,1111122 
SCCF RECON,ioos:station:SCCF:13:1,2012-10-03T12:00:00Z,26.5255,-82.0032,2.36,4.61,1111122 
SCCF RECON,ioos:station:SCCF:13:1,2012-10-03T13:00:00Z,26.5255,-82.0032,2.274,4.72,1111122 
SCCF RECON,ioos:station:SCCF:13:1,2012-10-03T14:00:00Z,26.5255,-82.0032,2.215,4.75,1111122 
SCCF RECON,ioos:station:SCCF:13:1,2012-10-03T15:00:00Z,26.5255,-82.0032,2.21,4.74,1111122 
SCCF RECON,ioos:station:SCCF:13:1,2012-10-03T16:00:00Z,26.5255,-82.0032,2.316,4.73,1111122 
SCCF RECON,ioos:station:SCCF:13:1,2012-10-03T17:00:00Z,26.5255,-82.0032,2.44,4.76,1111122 
SCCF RECON,ioos:station:SCCF:13:1,2012-10-03T18:00:00Z,26.5255,-82.0032,2.51,4.74,1111122 
SCCF RECON,ioos:station:SCCF:13:1,2012-10-03T19:00:00Z,26.5255,-82.0032,2.56,4.56,1111122 
SCCF RECON,ioos:station:SCCF:13:1,2012-10-03T20:00:00Z,26.5255,-82.0032,2.59,5.02,1111122 
SCCF RECON,ioos:station:SCCF:13:1,2012-10-03T21:00:00Z,26.5255,-82.0032,2.59,5.59,1111122 
SCCF RECON,ioos:station:SCCF:13:1,2012-10-03T22:00:00Z,26.5255,-82.0032,2.583,5.23,1111122 
SCCF RECON,ioos:station:SCCF:13:1,2012-10-03T23:00:00Z,26.5255,-82.0032,2.534,5.53,1111122 
SCCF RECON,ioos:station:SCCF:13:1,2012-10-04T00:00:00Z,26.5255,-82.0032,2.455,4.73,1111122 
SCCF RECON,ioos:station:SCCF:13:1,2012-10-04T01:00:00Z,26.5255,-82.0032,2.386,4.71,1111122 
SCCF RECON,ioos:station:SCCF:13:1,2012-10-04T02:00:00Z,26.5255,-82.0032,2.36,4.72,1111122 
SCCF RECON,ioos:station:SCCF:13:1,2012-10-04T03:00:00Z,26.5255,-82.0032,2.427,4.92,1111122 
SCCF RECON,ioos:station:SCCF:13:1,2012-10-04T04:00:00Z,26.5255,-82.0032,2.51,4.66,1111122 
SCCF RECON,ioos:station:SCCF:13:1,2012-10-04T05:00:00Z,26.5255,-82.0032,2.568,3.97,1111122 
SCCF RECON,ioos:station:SCCF:13:1,2012-10-04T06:00:00Z,26.5255,-82.0032,2.61,3.99,1111122 
SCCF RECON,ioos:station:SCCF:13:1,2012-10-04T07:00:00Z,26.5255,-82.0032,2.63,4.24,1111122 
SCCF RECON,ioos:station:SCCF:13:1,2012-10-04T08:00:00Z,26.5255,-82.0032,2.63,4.48,1111122 
SCCF RECON,ioos:station:SCCF:13:1,2012-10-04T09:00:00Z,26.5255,-82.0032,2.57,4.49,1111122 
SCCF RECON,ioos:station:SCCF:13:1,2012-10-04T10:00:00Z,26.5255,-82.0032,2.5,4.54,1111122 
SCCF RECON,ioos:station:SCCF:13:1,2012-10-04T11:00:00Z,26.5255,-82.0032,2.4,4.53,1111122 
SCCF RECON,ioos:station:SCCF:13:1,2012-10-04T12:00:00Z,26.5255,-82.0032,2.31,5.06,1111122 
SCCF RECON,ioos:station:SCCF:13:1,2012-10-04T13:00:00Z,26.5255,-82.0032,2.23,5.03,1111122 
SCCF RECON,ioos:station:SCCF:13:1,2012-10-04T14:00:00Z,26.5255,-82.0032,2.169,5.18,1111122 
SCCF RECON,ioos:station:SCCF:13:1,2012-10-04T15:00:00Z,26.5255,-82.0032,2.12,5.26,1111122 
SCCF RECON,ioos:station:SCCF:13:1,2012-10-04T16:00:00Z,26.5255,-82.0032,2.144,5.19,1111122 
SCCF RECON,ioos:station:SCCF:13:1,2012-10-04T17:00:00Z,26.5255,-82.0032,2.27,5.16,1111122 
SCCF RECON,ioos:station:SCCF:13:1,2012-10-04T18:00:00Z,26.5255,-82.0032,2.37,5.05,1111122 
SCCF RECON,ioos:station:SCCF:13:1,2012-10-04T19:00:00Z,26.5255,-82.0032,2.42,5.19,1111122 
SCCF RECON,ioos:station:SCCF:13:1,2012-10-04T20:00:00Z,26.5255,-82.0032,2.484,4.2,1111122 
SCCF RECON,ioos:station:SCCF:13:1,2012-10-04T21:00:00Z,26.5255,-82.0032,2.5,5.13,1111122 
SCCF RECON,ioos:station:SCCF:13:1,2012-10-04T22:00:00Z,26.5255,-82.0032,2.473,5.0,1111122 
SCCF RECON,ioos:station:SCCF:13:1,2012-10-04T23:00:00Z,26.5255,-82.0032,2.4,4.71,1111122 
SCCF RECON,ioos:station:SCCF:13:1,2012-10-05T00:00:00Z,26.5255,-82.0032,2.34,4.73,1111122 
SCCF RECON,ioos:station:SCCF:13:1,2012-10-05T01:00:00Z,26.5255,-82.0032,2.35,4.81,1111122 
SCCF RECON,ioos:station:SCCF:13:1,2012-10-05T02:00:00Z,26.5255,-82.0032,2.35,4.98,1111122 
SCCF RECON,ioos:station:SCCF:13:1,2012-10-05T03:00:00Z,26.5255,-82.0032,2.31,5.07,1111122 
SCCF RECON,ioos:station:SCCF:13:1,2012-10-05T04:00:00Z,26.5255,-82.0032,2.35,4.66,1111122 
SCCF RECON,ioos:station:SCCF:13:1,2012-10-05T05:00:00Z,26.5255,-82.0032,2.44,3.94,1111122 
SCCF RECON,ioos:station:SCCF:13:1,2012-10-05T06:00:00Z,26.5255,-82.0032,2.5,4.12,1111122 
SCCF RECON,ioos:station:SCCF:13:1,2012-10-05T07:00:00Z,26.5255,-82.0032,2.53,4.32,1111122 
SCCF RECON,ioos:station:SCCF:13:1,2012-10-05T08:00:00Z,26.5255,-82.0032,2.552,4.58,1111122 
SCCF RECON,ioos:station:SCCF:13:1,2012-10-05T09:00:00Z,26.5255,-82.0032,2.53,4.28,1111122 
SCCF RECON,ioos:station:SCCF:13:1,2012-10-05T10:00:00Z,26.5255,-82.0032,2.533,4.47,1111122 
SCCF RECON,ioos:station:SCCF:13:1,2012-10-05T11:00:00Z,26.5255,-82.0032,2.456,4.27,1111122 
SCCF RECON,ioos:station:SCCF:13:1,2012-10-05T12:00:00Z,26.5255,-82.0032,2.329,4.12,1111122 
SCCF RECON,ioos:station:SCCF:13:1,2012-10-05T13:00:00Z,26.5255,-82.0032,2.222,5.14,1111122 
SCCF RECON,ioos:station:SCCF:13:1,2012-10-05T14:00:00Z,26.5255,-82.0032,2.151,5.3,1111122 
SCCF RECON,ioos:station:SCCF:13:1,2012-10-05T15:00:00Z,26.5255,-82.0032,2.099,5.38,1111122 
SCCF RECON,ioos:station:SCCF:13:1,2012-10-05T16:00:00Z,26.5255,-82.0032,2.08,5.38,1111122 
SCCF RECON,ioos:station:SCCF:13:1,2012-10-05T17:00:00Z,26.5255,-82.0032,2.16,5.32,1111122 
SCCF RECON,ioos:station:SCCF:13:1,2012-10-05T18:00:00Z,26.5255,-82.0032,2.28,5.35,1111122 
SCCF RECON,ioos:station:SCCF:13:1,2012-10-05T19:00:00Z,26.5255,-82.0032,2.32,5.08,1111122 
SCCF RECON,ioos:station:SCCF:13:1,2012-10-05T20:00:00Z,26.5255,-82.0032,2.37,3.8,1111122 
SCCF RECON,ioos:station:SCCF:13:1,2012-10-05T21:00:00Z,26.5255,-82.0032,2.42,4.8,1111122 
SCCF RECON,ioos:station:SCCF:13:1,2012-10-05T22:00:00Z,26.5255,-82.0032,2.461,5.55,1111122 
SCCF RECON,ioos:station:SCCF:13:1,2012-10-05T23:00:00Z,26.5255,-82.0032,2.48,5.55,1111122 
SCCF RECON,ioos:station:SCCF:13:1,2012-10-06T00:00:00Z,26.5255,-82.0032,2.521,5.16,1111122 
SCCF RECON,ioos:station:SCCF:13:1,2012-10-06T01:00:00Z,26.5255,-82.0032,2.427,5.53,1111122 
SCCF RECON,ioos:station:SCCF:13:1,2012-10-06T02:00:00Z,26.5255,-82.0032,2.38,4.83,1111122 
SCCF RECON,ioos:station:SCCF:13:1,2012-10-06T03:00:00Z,26.5255,-82.0032,2.38,4.68,1111122 
SCCF RECON,ioos:station:SCCF:13:1,2012-10-06T04:00:00Z,26.5255,-82.0032,2.39,4.6,1111122 
SCCF RECON,ioos:station:SCCF:13:1,2012-10-06T05:00:00Z,26.5255,-82.0032,2.401,3.24,1111122 
SCCF RECON,ioos:station:SCCF:13:1,2012-10-06T06:00:00Z,26.5255,-82.0032,2.46,4.13,1111122 
SCCF RECON,ioos:station:SCCF:13:1,2012-10-06T07:00:00Z,26.5255,-82.0032,2.516,4.25,1111122 
SCCF RECON,ioos:station:SCCF:13:1,2012-10-06T08:00:00Z,26.5255,-82.0032,2.57,4.49,1111122 
SCCF RECON,ioos:station:SCCF:13:1,2012-10-06T09:00:00Z,26.5255,-82.0032,2.616,4.66,1111122 
SCCF RECON,ioos:station:SCCF:13:1,2012-10-06T10:00:00Z,26.5255,-82.0032,2.6,4.7,1111122 
SCCF RECON,ioos:station:SCCF:13:1,2012-10-06T11:00:00Z,26.5255,-82.0032,2.553,4.26,1111122 
SCCF RECON,ioos:station:SCCF:13:1,2012-10-06T12:00:00Z,26.5255,-82.0032,2.45,4.66,1111122 
SCCF RECON,ioos:station:SCCF:13:1,2012-10-06T13:00:00Z,26.5255,-82.0032,2.327,4.46,1111122 
SCCF RECON,ioos:station:SCCF:13:1,2012-10-06T14:00:00Z,26.5255,-82.0032,2.244,5.13,1111122 
SCCF RECON,ioos:station:SCCF:13:1,2012-10-06T15:00:00Z,26.5255,-82.0032,2.18,5.16,1111122 
SCCF RECON,ioos:station:SCCF:13:1,2012-10-06T16:00:00Z,26.5255,-82.0032,2.149,5.28,1111122 
SCCF RECON,ioos:station:SCCF:13:1,2012-10-06T17:00:00Z,26.5255,-82.0032,2.134,5.11,1111122 
SCCF RECON,ioos:station:SCCF:13:1,2012-10-06T18:00:00Z,26.5255,-82.0032,2.166,5.0,1111122 
SCCF RECON,ioos:station:SCCF:13:1,2012-10-06T19:00:00Z,26.5255,-82.0032,2.247,5.07,1111122 
SCCF RECON,ioos:station:SCCF:13:1,2012-10-06T20:00:00Z,26.5255,-82.0032,2.31,4.93,1111122 
SCCF RECON,ioos:station:SCCF:13:1,2012-10-06T21:00:00Z,26.5255,-82.0032,2.34,3.78,1111122 
SCCF RECON,ioos:station:SCCF:13:1,2012-10-06T22:00:00Z,26.5255,-82.0032,2.39,3.54,1111122 
SCCF RECON,ioos:station:SCCF:13:1,2012-10-06T23:00:00Z,26.5255,-82.0032,2.423,3.61,1111122 
SCCF RECON,ioos:station:SCCF:13:1,2012-10-07T00:00:00Z,26.5255,-82.0032,2.44,4.06,1111122 
SCCF RECON,ioos:station:SCCF:13:1,2012-10-07T01:00:00Z,26.5255,-82.0032,2.47,4.07,1111122 
SCCF RECON,ioos:station:SCCF:13:1,2012-10-07T02:00:00Z,26.5255,-82.0032,2.503,3.76,1111122 
SCCF RECON,ioos:station:SCCF:13:1,2012-10-07T03:00:00Z,26.5255,-82.0032,2.5,4.28,1111122 
SCCF RECON,ioos:station:SCCF:13:1,2012-10-07T04:00:00Z,26.5255,-82.0032,2.44,3.55,1111122 
SCCF RECON,ioos:station:SCCF:13:1,2012-10-07T05:00:00Z,26.5255,-82.0032,2.419,4.32,1111122 
SCCF RECON,ioos:station:SCCF:13:1,2012-10-07T06:00:00Z,26.5255,-82.0032,2.426,3.55,1111122 
SCCF RECON,ioos:station:SCCF:13:1,2012-10-07T07:00:00Z,26.5255,-82.0032,2.5,3.06,1111122 
SCCF RECON,ioos:station:SCCF:13:1,2012-10-07T08:00:00Z,26.5255,-82.0032,2.59,3.8,1111122 
SCCF RECON,ioos:station:SCCF:13:1,2012-10-07T09:00:00Z,26.5255,-82.0032,2.54,3.95,1111122 
SCCF RECON,ioos:station:SCCF:13:1,2012-10-07T10:00:00Z,26.5255,-82.0032,2.64,3.82,1111122 
SCCF RECON,ioos:station:SCCF:13:1,2012-10-07T11:00:00Z,26.5255,-82.0032,2.7,4.32,1111122 
SCCF RECON,ioos:station:SCCF:13:1,2012-10-07T12:00:00Z,26.5255,-82.0032,2.6,4.05,1111122 
SCCF RECON,ioos:station:SCCF:13:1,2012-10-07T13:00:00Z,26.5255,-82.0032,2.47,4.27,1111122 
SCCF RECON,ioos:station:SCCF:13:1,2012-10-07T14:00:00Z,26.5255,-82.0032,2.39,4.24,1111122 
SCCF RECON,ioos:station:SCCF:13:1,2012-10-07T15:00:00Z,26.5255,-82.0032,2.331,4.96,1111122 
SCCF RECON,ioos:station:SCCF:13:1,2012-10-07T16:00:00Z,26.5255,-82.0032,2.253,5.09,1111122 
SCCF RECON,ioos:station:SCCF:13:1,2012-10-07T17:00:00Z,26.5255,-82.0032,2.19,5.13,1111122 
SCCF RECON,ioos:station:SCCF:13:1,2012-10-07T18:00:00Z,26.5255,-82.0032,2.15,4.91,1111122 
SCCF RECON,ioos:station:SCCF:13:1,2012-10-07T19:00:00Z,26.5255,-82.0032,2.18,4.79,1111122 
SCCF RECON,ioos:station:SCCF:13:1,2012-10-07T20:00:00Z,26.5255,-82.0032,2.25,4.8,1111122 
SCCF RECON,ioos:station:SCCF:13:1,2012-10-07T21:00:00Z,26.5255,-82.0032,2.33,4.87,1111122 
SCCF RECON,ioos:station:SCCF:13:1,2012-10-07T22:00:00Z,26.5255,-82.0032,2.378,4.21,1111122 
SCCF RECON,ioos:station:SCCF:13:1,2012-10-07T23:00:00Z,26.5255,-82.0032,2.47,3.71,1111122 
SCCF RECON,ioos:station:SCCF:13:1,2012-10-08T00:00:00Z,26.5255,-82.0032,2.452,4.62,1111122 
SCCF RECON,ioos:station:SCCF:13:1,2012-10-08T01:00:00Z,26.5255,-82.0032,2.44,3.6,1111122 
SCCF RECON,ioos:station:SCCF:13:1,2012-10-08T02:00:00Z,26.5255,-82.0032,2.412,3.46,1111122 
SCCF RECON,ioos:station:SCCF:13:1,2012-10-08T03:00:00Z,26.5255,-82.0032,2.44,3.19,1111122 
SCCF RECON,ioos:station:SCCF:13:1,2012-10-08T04:00:00Z,26.5255,-82.0032,2.46,3.1,1111122 
SCCF RECON,ioos:station:SCCF:13:1,2012-10-08T05:00:00Z,26.5255,-82.0032,2.46,3.44,1111122 
SCCF RECON,ioos:station:SCCF:13:1,2012-10-08T06:00:00Z,26.5255,-82.0032,2.39,3.68,1111122 
SCCF RECON,ioos:station:SCCF:13:1,2012-10-08T07:00:00Z,26.5255,-82.0032,2.443,2.62,1111122 
SCCF RECON,ioos:station:SCCF:13:1,2012-10-08T08:00:00Z,26.5255,-82.0032,2.56,4.08,1111122 
SCCF RECON,ioos:station:SCCF:13:1,2012-10-08T09:00:00Z,26.5255,-82.0032,2.605,3.95,1111122 
SCCF RECON,ioos:station:SCCF:13:1,2012-10-08T10:00:00Z,26.5255,-82.0032,2.616,4.18,1111122 
SCCF RECON,ioos:station:SCCF:13:1,2012-10-08T11:00:00Z,26.5255,-82.0032,2.631,4.19,1111122 
SCCF RECON,ioos:station:SCCF:13:1,2012-10-08T12:00:00Z,26.5255,-82.0032,2.64,3.98,1111122 
SCCF RECON,ioos:station:SCCF:13:1,2012-10-08T13:00:00Z,26.5255,-82.0032,2.59,3.85,1111122 
SCCF RECON,ioos:station:SCCF:13:1,2012-10-08T14:00:00Z,26.5255,-82.0032,2.503,4.1,1111122 
SCCF RECON,ioos:station:SCCF:13:1,2012-10-08T15:00:00Z,26.5255,-82.0032,2.408,4.69,1111122 
SCCF RECON,ioos:station:SCCF:13:1,2012-10-08T16:00:00Z,26.5255,-82.0032,2.332,5.07,1111122 
SCCF RECON,ioos:station:SCCF:13:1,2012-10-08T17:00:00Z,26.5255,-82.0032,2.271,5.11,1111122 
SCCF RECON,ioos:station:SCCF:13:1,2012-10-08T18:00:00Z,26.5255,-82.0032,2.22,5.2,1111122 
SCCF RECON,ioos:station:SCCF:13:1,2012-10-08T19:00:00Z,26.5255,-82.0032,2.179,5.09,1111122 
SCCF RECON,ioos:station:SCCF:13:1,2012-10-08T20:00:00Z,26.5255,-82.0032,2.198,4.93,1111122 
SCCF RECON,ioos:station:SCCF:13:1,2012-10-08T21:00:00Z,26.5255,-82.0032,2.287,4.87,1111122 
SCCF RECON,ioos:station:SCCF:13:1,2012-10-08T22:00:00Z,26.5255,-82.0032,2.365,4.85,1111122 
SCCF RECON,ioos:station:SCCF:13:1,2012-10-08T23:00:00Z,26.5255,-82.0032,2.45,3.75,1111122 
SCCF RECON,ioos:station:SCCF:13:1,2012-10-09T00:00:00Z,26.5255,-82.0032,2.477,3.75,1111122 
SCCF RECON,ioos:station:SCCF:13:1,2012-10-09T01:00:00Z,26.5255,-82.0032,2.51,3.6,1111122 
SCCF RECON,ioos:station:SCCF:13:1,2012-10-09T02:00:00Z,26.5255,-82.0032,2.54,4.19,1111122 
SCCF RECON,ioos:station:SCCF:13:1,2012-10-09T03:00:00Z,26.5255,-82.0032,2.53,4.1,1111122 
SCCF RECON,ioos:station:SCCF:13:1,2012-10-09T04:00:00Z,26.5255,-82.0032,2.52,4.11,1111122 
SCCF RECON,ioos:station:SCCF:13:1,2012-10-09T05:00:00Z,26.5255,-82.0032,2.47,4.23,1111122 
SCCF RECON,ioos:station:SCCF:13:1,2012-10-09T06:00:00Z,26.5255,-82.0032,2.43,3.98,1111122 
SCCF RECON,ioos:station:SCCF:13:1,2012-10-09T07:00:00Z,26.5255,-82.0032,2.42,3.98,1111122 
SCCF RECON,ioos:station:SCCF:13:1,2012-10-09T08:00:00Z,26.5255,-82.0032,2.408,3.75,1111122 
SCCF RECON,ioos:station:SCCF:13:1,2012-10-09T09:00:00Z,26.5255,-82.0032,2.44,2.61,1111122 
SCCF RECON,ioos:station:SCCF:13:1,2012-10-09T10:00:00Z,26.5255,-82.0032,2.504,3.35,1111122 
SCCF RECON,ioos:station:SCCF:13:1,2012-10-09T11:00:00Z,26.5255,-82.0032,2.55,3.92,1111122 
SCCF RECON,ioos:station:SCCF:13:1,2012-10-09T12:00:00Z,26.5255,-82.0032,2.572,3.73,1111122 
SCCF RECON,ioos:station:SCCF:13:1,2012-10-09T13:00:00Z,26.5255,-82.0032,2.6,3.86,1111122 
SCCF RECON,ioos:station:SCCF:13:1,2012-10-09T14:00:00Z,26.5255,-82.0032,2.561,3.88,1111122 
SCCF RECON,ioos:station:SCCF:13:1,2012-10-09T15:00:00Z,26.5255,-82.0032,2.486,3.79,1111122 
SCCF RECON,ioos:station:SCCF:13:1,2012-10-09T16:00:00Z,26.5255,-82.0032,2.37,3.55,1111122 
SCCF RECON,ioos:station:SCCF:13:1,2012-10-09T17:00:00Z,26.5255,-82.0032,2.278,4.55,1111122 
SCCF RECON,ioos:station:SCCF:13:1,2012-10-09T18:00:00Z,26.5255,-82.0032,2.216,4.69,1111122 
SCCF RECON,ioos:station:SCCF:13:1,2012-10-09T19:00:00Z,26.5255,-82.0032,2.159,4.96,1111122 
SCCF RECON,ioos:station:SCCF:13:1,2012-10-09T20:00:00Z,26.5255,-82.0032,2.12,4.98,1111122 
SCCF RECON,ioos:station:SCCF:13:1,2012-10-09T21:00:00Z,26.5255,-82.0032,2.14,4.93,1111122 
SCCF RECON,ioos:station:SCCF:13:1,2012-10-09T22:00:00Z,26.5255,-82.0032,2.21,4.78,1111122 
SCCF RECON,ioos:station:SCCF:13:1,2012-10-09T23:00:00Z,26.5255,-82.0032,2.3,4.77,1111122 
SCCF RECON,ioos:station:SCCF:13:1,2012-10-10T00:00:00Z,26.5255,-82.0032,2.358,4.55,1111122 
SCCF RECON,ioos:station:SCCF:13:1,2012-10-10T01:00:00Z,26.5255,-82.0032,2.41,3.18,1111122 
SCCF RECON,ioos:station:SCCF:13:1,2012-10-10T02:00:00Z,26.5255,-82.0032,2.475,3.37,1111122 
SCCF RECON,ioos:station:SCCF:13:1,2012-10-10T03:00:00Z,26.5255,-82.0032,2.51,3.82,1111122 
SCCF RECON,ioos:station:SCCF:13:1,2012-10-10T04:00:00Z,26.5255,-82.0032,2.489,3.75,1111122 
SCCF RECON,ioos:station:SCCF:13:1,2012-10-10T05:00:00Z,26.5255,-82.0032,2.432,3.45,1111122 
SCCF RECON,ioos:station:SCCF:13:1,2012-10-10T06:00:00Z,26.5255,-82.0032,2.38,3.38,1111122 
SCCF RECON,ioos:station:SCCF:13:1,2012-10-10T07:00:00Z,26.5255,-82.0032,2.32,3.86,1111122 
SCCF RECON,ioos:station:SCCF:13:1,2012-10-10T08:00:00Z,26.5255,-82.0032,2.29,4.83,1111122 
SCCF RECON,ioos:station:SCCF:13:1,2012-10-10T09:00:00Z,26.5255,-82.0032,2.305,4.89,1111122 
SCCF RECON,ioos:station:SCCF:13:1,2012-10-10T10:00:00Z,26.5255,-82.0032,2.37,4.57,1111122 
SCCF RECON,ioos:station:SCCF:13:1,2012-10-10T11:00:00Z,26.5255,-82.0032,2.455,3.28,1111122 
SCCF RECON,ioos:station:SCCF:13:1,2012-10-10T12:00:00Z,26.5255,-82.0032,2.534,3.54,1111122 
SCCF RECON,ioos:station:SCCF:13:1,2012-10-10T13:00:00Z,26.5255,-82.0032,2.591,3.44,1111122 
SCCF RECON,ioos:station:SCCF:13:1,2012-10-10T14:00:00Z,26.5255,-82.0032,2.61,3.95,1111122 
SCCF RECON,ioos:station:SCCF:13:1,2012-10-10T15:00:00Z,26.5255,-82.0032,2.59,3.58,1111122 
SCCF RECON,ioos:station:SCCF:13:1,2012-10-10T16:00:00Z,26.5255,-82.0032,2.53,3.54,1111122 
SCCF RECON,ioos:station:SCCF:13:1,2012-10-10T17:00:00Z,26.5255,-82.0032,2.435,3.99,1111122 
SCCF RECON,ioos:station:SCCF:13:1,2012-10-10T18:00:00Z,26.5255,-82.0032,2.339,4.06,1111122 
SCCF RECON,ioos:station:SCCF:13:1,2012-10-10T19:00:00Z,26.5255,-82.0032,2.269,4.88,1111122 
SCCF RECON,ioos:station:SCCF:13:1,2012-10-10T20:00:00Z,26.5255,-82.0032,2.2,5.01,1111122 
SCCF RECON,ioos:station:SCCF:13:1,2012-10-10T21:00:00Z,26.5255,-82.0032,2.168,5.22,1111122 
SCCF RECON,ioos:station:SCCF:13:1,2012-10-10T22:00:00Z,26.5255,-82.0032,2.19,5.07,1111122 
SCCF RECON,ioos:station:SCCF:13:1,2012-10-10T23:00:00Z,26.5255,-82.0032,2.26,4.94,1111122 
SCCF RECON,ioos:station:SCCF:13:1,2012-10-11T00:00:00Z,26.5255,-82.0032,2.37,4.78,1111122 
SCCF RECON,ioos:station:SCCF:13:1,2012-10-11T01:00:00Z,26.5255,-82.0032,2.44,3.56,1111122 
SCCF RECON,ioos:station:SCCF:13:1,2012-10-11T02:00:00Z,26.5255,-82.0032,2.498,3.32,1111122 
SCCF RECON,ioos:station:SCCF:13:1,2012-10-11T03:00:00Z,26.5255,-82.0032,2.526,3.68,1111122 
SCCF RECON,ioos:station:SCCF:13:1,2012-10-11T04:00:00Z,26.5255,-82.0032,2.52,3.66,1111122 
SCCF RECON,ioos:station:SCCF:13:1,2012-10-11T05:00:00Z,26.5255,-82.0032,2.47,3.61,1111122 
SCCF RECON,ioos:station:SCCF:13:1,2012-10-11T06:00:00Z,26.5255,-82.0032,2.38,3.7,1111122 
SCCF RECON,ioos:station:SCCF:13:1,2012-10-11T07:00:00Z,26.5255,-82.0032,2.29,4.6,1111122 
SCCF RECON,ioos:station:SCCF:13:1,2012-10-11T08:00:00Z,26.5255,-82.0032,2.21,4.88,1111122 
SCCF RECON,ioos:station:SCCF:13:1,2012-10-11T09:00:00Z,26.5255,-82.0032,2.17,5.02,1111122 
SCCF RECON,ioos:station:SCCF:13:1,2012-10-11T10:00:00Z,26.5255,-82.0032,2.18,5.17,1111122 
SCCF RECON,ioos:station:SCCF:13:1,2012-10-11T11:00:00Z,26.5255,-82.0032,2.235,5.24,1111122 
SCCF RECON,ioos:station:SCCF:13:1,2012-10-11T12:00:00Z,26.5255,-82.0032,2.333,5.2,1111122 
SCCF RECON,ioos:station:SCCF:13:1,2012-10-11T13:00:00Z,26.5255,-82.0032,2.429,3.57,1111122 
SCCF RECON,ioos:station:SCCF:13:1,2012-10-11T14:00:00Z,26.5255,-82.0032,2.488,3.41,1111122 
SCCF RECON,ioos:station:SCCF:13:1,2012-10-11T15:00:00Z,26.5255,-82.0032,2.533,3.63,1111122 
SCCF RECON,ioos:station:SCCF:13:1,2012-10-11T16:00:00Z,26.5255,-82.0032,2.51,3.59,1111122 
SCCF RECON,ioos:station:SCCF:13:1,2012-10-11T17:00:00Z,26.5255,-82.0032,2.419,3.64,1111122 
SCCF RECON,ioos:station:SCCF:13:1,2012-10-11T18:00:00Z,26.5255,-82.0032,2.32,4.01,1111122 
SCCF RECON,ioos:station:SCCF:13:1,2012-10-11T19:00:00Z,26.5255,-82.0032,2.25,4.98,1111122 
SCCF RECON,ioos:station:SCCF:13:1,2012-10-11T20:00:00Z,26.5255,-82.0032,2.18,5.35,1111122 